weather.gov     
National Weather Service

Regional Weather Roundup
NWS Homepage
This page is being discontinued on March 12, 2014.
The same data is available at this site. Please update your bookmarks.
Thank you, and we apologize for the inconvenience.
Please send an email to SR-SRH.Webmaster@noaa.gov with any concerns.


Current Version
Previous Version:    01  02  03  04  05  06  07  08  09  10  11  12  13  14  15  16  17  18  19  20  21  22  23  24  25  26  27  28  
[Printable]
538
ASUS45 KBOU 011207
RWRCO

WEATHER ROUNDUP FOR COLORADO
NATIONAL WEATHER SERVICE DENVER/BOULDER CO
600 AM MDT WED OCT 01 2014

NOTE: "FAIR" INDICATES FEW OR NO CLOUDS BELOW 12000 FEET WITH NO
SIGNIFICANT WEATHER AND/OR OBSTRUCTIONS TO VISIBILITY.

COZ001>005-013-030-031-011300-
...NORTHWEST COLORADO...

CITY           SKY/WX    TMP DP  RH WIND       PRES   REMARKS
CRAIG          CLOUDY    45  41  86 CALM      29.96S
HAYDEN         CLOUDY    43  37  81 E3        29.96R
MEEKER         RAIN      42  41  96 CALM      29.97S FOG
MOUNT WERNER   NOT AVBL
STEAMBOAT SPGS CLOUDY    40  39  97 CALM      29.97S
WALDEN         MOCLDY    34  32  93 N6        29.98S WCI  29
$$

COZ006>008-011-011300-
...WEST CENTRAL VALLEYS...

CITY           SKY/WX    TMP DP  RH WIND       PRES   REMARKS
GRAND JUNCTION MOCLDY    46  43  89 NW10      29.91R
MONTROSE       CLOUDY    47  39  74 E7        29.95S
EAGLE          CLOUDY    41  41 100 CALM      30.00F
RIFLE          MOCLDY    44  41  89 E7        29.94R
DELTA          CLOUDY    50  43  78 E6        29.92S
NUCLA          CLOUDY    45  41  87 W7        29.97S
$$

COZ017>023-064>068-011300-
...SOUTHWEST COLORADO...

CITY           SKY/WX    TMP DP  RH WIND       PRES   REMARKS
DURANGO        MOCLDY    37  36  96 W3        30.00S
CORTEZ         MOCLDY    41  39  93 NE3       29.95S
PAGOSA SPRINGS MOCLDY    34  34 100 CALM      30.05S
TELLURIDE      CLOUDY   N/A N/A N/A CALM      30.06R
WOLF CREEK PAS PTCLDY    28  27  93 SW18      30.17S WCI  16
$$

COZ009-010-012-014-032>034-037-058>063-011300-
...CENTRAL COLORADO...

CITY           SKY/WX    TMP DP  RH WIND       PRES   REMARKS
ASPEN          MOCLDY    37  33  85 CALM      29.99S
BUENA VISTA    PTCLDY    30  27  86 W5        30.03S WCI  25
COPPER MTN     PTCLDY    34  27  75 S10       30.12S WCI  26
BERTHOUD PASS    N/A     23  21  93 NW17      30.14S WCI   9
COTTONWOOD PAS PTCLDY    39  27  60 SE5       30.08R
GUNNISON       MOCLDY    34  28  80 CALM      30.06S
KREMMLING      CLOUDY    36  34  93 SW3       30.01S
LEADVILLE      MOCLDY    29  27  92 CALM      30.06R
SALIDA         PTCLDY    40  32  71 N7        30.09S
SUNLIGHT       MOCLDY    34  32  93 CALM      30.09S
WILKERSON PASS NOT AVBL
$$

COZ069>075-011300-
...SAN LUIS VALLEY/SANGRE DE CRISTO MOUNTAINS...

CITY           SKY/WX    TMP DP  RH WIND       PRES   REMARKS
ALAMOSA        PTCLDY    30  28  92 CALM      30.04R
LA VETA PASS   PTCLDY    32  30  93 SW8       30.10S WCI  25
SAGUACHE       PTCLDY    34  32  93 N10       30.05S WCI  26
$$

COZ035-036-038>040-011300-
...NORTHERN COLORADO FRONT RANGE...

CITY           SKY/WX    TMP DP  RH WIND       PRES   REMARKS
DENVER INTL AP MOCLDY    43  37  79 S8        29.88R
DMNS CITY PARK   N/A     46  37  71 SW1       29.89R
AURORA         MOCLDY    45  35  67 S7        29.90R
FRONT RANGE AP MOCLDY    45  37  76 SE6       29.89S
ERIE MUNI ARPT MOCLDY    42  39  91 S3        29.88R
BOULDER MUN AP MOCLDY    46  37  71 W6        29.88R
CENTENNIAL     MOCLDY    44  36  73 CALM      29.90R
BROOMFIELD     MOCLDY    48  36  61 CALM      29.89R
FORT COLLINS   CLOUDY    45  39  81 CALM      29.89S
LONGMONT       CLOUDY    44  40  86 NW5       29.89S
$$

COZ041-046-047-076>085-087-088-011300-
...PIKES PEAK/PALMER DIVIDE AND SOUTHERN FOOTHILLS...

CITY           SKY/WX    TMP DP  RH WIND       PRES   REMARKS
COLO. SPRINGS  MOCLDY    49  33  54 CALM      29.93S
A. F. ACADEMY  MOCLDY    42  29  60 NE5       29.94S
ELLICOTT       NOT AVBL
FALCON         MOCLDY    43  30  59 W7        29.96S
FORT CARSON    MOCLDY    44  35  70 W5        29.91R
LIMON          PTCLDY    40  37  89 SW3       29.91R
MONUMENT HILL  MOCLDY    36  30  80 S5        29.94S
TRINIDAD       CLEAR     42  33  70 SW7       29.93R
$$

COZ042>045-048>051-090-091-011300-
...NORTHEAST COLORADO...

CITY           SKY/WX    TMP DP  RH WIND       PRES   REMARKS
GREELEY ARPT   MOCLDY    45  36  70 S6        29.88R
AKRON          CLEAR     45  40  82 W6        29.86R
BURLINGTON     CLEAR     47  42  83 NW8       29.85R
WRAY           CLEAR     46  43  90 MISG      29.83S
STERLING       CLEAR     46  45  93 CALM      29.84S
HOLYOKE        CLEAR     48  43  81 W5        29.84R
FORT MORGAN    CLEAR     46  40  82 W3        29.87S
$$

COZ086-089-092>099-011300-
...SOUTHEAST COLORADO...

CITY           SKY/WX    TMP DP  RH WIND       PRES   REMARKS
PUEBLO         MOCLDY    45  37  73 CALM      29.87S
LA JUNTA       PTCLDY    46  37  71 W12       29.86R
LAMAR          CLEAR     44  42  93 SW5       29.82R
SPRINGFIELD      N/A     47  36  65 NE7       29.83R
$$




U.S. Dept. of Commerce
NOAA National Weather Service
1325 East West Highway
Silver Spring, MD 20910
E-mail: w-nws.webmaster@noaa.gov
Page last modified: May 16, 2007
NATIONAL WEATHER SERVICE: for Safety, for Work, for Fun - FOR LIFE